Location: Newark
(45.8378°N, 5.5389°E)
Time: 19:07:22
(UTC+00:00)

YUBILEINY - Pass Details

Date: 19 December 2019
Orbit: 1478 x 1509 km, 82.5° (Epoch: 28 January)

Event Time Altitude Azimuth Distance (km) Brightness Sun altitude
Rises 05:59:23 0° 353° (N) 4,611 ? -12.5°
Reaches altitude 10° 06:02:33 10° 1° (N) 3,628 ? -12.0°
Maximum altitude 06:10:39 41° 70° (ENE) 2,047 ? -10.7°
Drops below altitude 10° 06:18:43 10° 138° (SE) 3,624 ? -9.4°
Sets 06:21:50 0° 145° (SE) 4,604 ? -8.9°
